TimeAEST,TemperatureF,Dew PointF,Humidity,Sea Level PressureIn,VisibilityMPH,Wind Direction,Wind SpeedMPH,Gust SpeedMPH,PrecipitationIn,Events,Conditions,WindDirDegrees,DateUTC
12:00 AM,73,61,56,30.09,,ESE,16.1,,,,,120,2013-05-04 14:00:00
12:00 AM,73.4,60.8,65,30.09,-9999.0,ESE,16.1,-,N/A,,Unknown,120,2013-05-04 14:00:00
12:30 AM,73.4,60.8,65,30.06,-9999.0,ESE,16.1,-,N/A,,Unknown,120,2013-05-04 14:30:00
1:00 AM,73.4,59.0,61,30.06,-9999.0,ESE,16.1,-,N/A,,Unknown,120,2013-05-04 15:00:00
1:30 AM,71.6,60.8,69,30.06,-9999.0,ESE,16.1,-,N/A,,Unknown,120,2013-05-04 15:30:00
2:00 AM,71.6,62.6,73,30.06,-9999.0,SE,13.8,-,N/A,,Unknown,130,2013-05-04 16:00:00
2:30 AM,71.6,62.6,73,30.04,-9999.0,SE,16.1,-,N/A,,Unknown,130,2013-05-04 16:30:00
3:00 AM,72,62,62,30.04,,SE,15.0,,,,,130,2013-05-04 17:00:00
3:00 AM,71.6,60.8,69,30.04,-9999.0,SE,15.0,-,N/A,,Unknown,130,2013-05-04 17:00:00
3:30 AM,71.6,62.6,73,30.04,-9999.0,SE,15.0,-,N/A,,Unknown,130,2013-05-04 17:30:00
4:00 AM,71.6,62.6,73,30.04,-9999.0,SE,13.8,-,N/A,,Unknown,130,2013-05-04 18:00:00
4:30 AM,71.6,62.6,73,30.04,-9999.0,SE,15.0,-,N/A,,Unknown,130,2013-05-04 18:30:00
5:00 AM,71.6,62.6,73,30.04,-9999.0,SE,15.0,-,N/A,,Unknown,130,2013-05-04 19:00:00
5:30 AM,71.6,64.4,78,30.04,-9999.0,SE,16.1,-,N/A,,Unknown,130,2013-05-04 19:30:00
6:00 AM,72,64,69,30.04,,SE,18.4,,,,,130,2013-05-04 20:00:00
6:00 AM,71.6,64.4,78,30.04,-9999.0,SE,18.4,-,N/A,,Unknown,130,2013-05-04 20:00:00
6:30 AM,71.6,66.2,83,30.04,-9999.0,SE,19.6,-,N/A,,Unknown,140,2013-05-04 20:30:00
7:00 AM,73.4,66.2,78,30.06,-9999.0,SE,18.4,-,N/A,,Unknown,140,2013-05-04 21:00:00
7:30 AM,73.4,66.2,78,30.06,-9999.0,SE,17.3,-,N/A,,Unknown,140,2013-05-04 21:30:00
8:00 AM,73.4,66.2,78,30.06,-9999.0,SSE,17.3,-,N/A,,Unknown,150,2013-05-04 22:00:00
8:30 AM,75.2,64.4,69,30.06,-9999.0,SSE,18.4,-,N/A,,Unknown,150,2013-05-04 22:30:00
9:00 AM,76,66,64,30.09,,SE,19.6,,,,,140,2013-05-04 23:00:00
9:00 AM,75.2,66.2,73,30.09,-9999.0,SE,19.6,-,N/A,,Unknown,140,2013-05-04 23:00:00
9:30 AM,75.2,66.2,73,30.09,-9999.0,SSE,19.6,-,N/A,,Unknown,150,2013-05-04 23:30:00
10:00 AM,75.2,66.2,73,30.09,-9999.0,SSE,17.3,-,N/A,,Unknown,150,2013-05-05 00:00:00
10:30 AM,75.2,66.2,73,30.09,-9999.0,SSE,17.3,-,N/A,,Unknown,150,2013-05-05 00:30:00
11:00 AM,75.2,66.2,73,30.06,-9999.0,SSE,17.3,-,N/A,,Unknown,150,2013-05-05 01:00:00
11:30 AM,77.0,66.2,69,30.06,-9999.0,SSE,18.4,-,N/A,,Unknown,150,2013-05-05 01:30:00
12:00 PM,76,64,59,30.05,,SSE,18.4,,,,,150,2013-05-05 02:00:00
12:00 PM,77.0,64.4,65,30.04,-9999.0,SSE,18.4,-,N/A,,Unknown,150,2013-05-05 02:00:00
12:30 PM,75.2,64.4,69,30.04,-9999.0,SE,18.4,-,N/A,,Unknown,140,2013-05-05 02:30:00
1:00 PM,77.0,64.4,65,30.01,-9999.0,SE,19.6,-,N/A,,Unknown,130,2013-05-05 03:00:00
1:30 PM,77.0,62.6,61,30.01,-9999.0,SE,18.4,-,N/A,,Unknown,130,2013-05-05 03:30:00
2:00 PM,77.0,60.8,57,30.01,-9999.0,ESE,19.6,-,N/A,,Unknown,120,2013-05-05 04:00:00
2:30 PM,77.0,64.4,65,29.98,-9999.0,ESE,18.4,-,N/A,,Unknown,120,2013-05-05 04:30:00
3:00 PM,76,59,45,30.00,,ESE,20.7,,,,,120,2013-05-05 05:00:00
3:00 PM,75.2,59.0,57,29.98,-9999.0,ESE,20.7,-,N/A,,Unknown,120,2013-05-05 05:00:00
3:30 PM,75.2,60.8,61,29.98,-9999.0,ESE,20.7,-,N/A,,Unknown,120,2013-05-05 05:30:00
4:00 PM,75.2,60.8,61,30.01,-9999.0,ESE,18.4,-,N/A,,Unknown,120,2013-05-05 06:00:00
4:30 PM,75.2,59.0,57,30.01,-9999.0,ESE,18.4,-,N/A,,Unknown,110,2013-05-05 06:30:00
5:00 PM,75.2,60.8,61,30.01,-9999.0,ESE,17.3,-,N/A,,Unknown,120,2013-05-05 07:00:00
5:30 PM,75.2,60.8,61,30.01,-9999.0,ESE,16.1,-,N/A,,Unknown,110,2013-05-05 07:30:00
6:00 PM,75,59,47,30.03,,East,20.7,,,,,100,2013-05-05 08:00:00
6:00 PM,75.2,59.0,57,30.01,-9999.0,East,20.7,-,N/A,,Unknown,100,2013-05-05 08:00:00
6:30 PM,75.2,59.0,57,30.01,-9999.0,ESE,20.7,-,N/A,,Unknown,110,2013-05-05 08:30:00
7:00 PM,75.2,59.0,57,30.04,-9999.0,ESE,19.6,-,N/A,,Unknown,110,2013-05-05 09:00:00
7:30 PM,73.4,59.0,61,30.04,-9999.0,ESE,17.3,-,N/A,,Unknown,120,2013-05-05 09:30:00
8:00 PM,73.4,60.8,65,30.06,-9999.0,SE,18.4,-,N/A,,Unknown,130,2013-05-05 10:00:00
9:00 PM,74,63,60,30.06,,SE,17.3,,,,,130,2013-05-05 11:00:00
9:00 PM,73.4,62.6,69,30.06,-9999.0,SE,17.3,-,N/A,,Unknown,130,2013-05-05 11:00:00
9:30 PM,75.2,60.8,61,30.04,-9999.0,ESE,19.6,-,N/A,,Unknown,120,2013-05-05 11:30:00
10:00 PM,73.4,59.0,61,30.04,-9999.0,ESE,17.3,-,N/A,,Unknown,120,2013-05-05 12:00:00
10:30 PM,73.4,62.6,69,30.04,-9999.0,SE,16.1,-,N/A,,Unknown,130,2013-05-05 12:30:00
11:00 PM,73.4,62.6,69,30.04,-9999.0,SE,13.8,-,N/A,,Unknown,130,2013-05-05 13:00:00
11:30 PM,71.6,66.2,83,30.04,-9999.0,East,21.9,-,N/A,,Unknown,90,2013-05-05 13:30:00